Flag for U.S.A. Weather past 2 weeks in Paradise, Nevada, U.S.A.

Now
88 °F

Passing clouds.


Feels Like: 84 °F
Forecast: 65 / 90 °F
Wind: 3 mph from North

Location: McCarran International Airport


UV Index: 5 (Moderate)

Visibility: 10 mi


Pressure: 29.88 "Hg

Humidity: 14%

Dew point: 33 °F

Location of ParadiseLocation

Historic Weather in Paradise

°F

Paradise temperature yesterday

Maximum temperature yesterday: 83 °F (at 3:56 PM)
Minimum temperature yesterday: 64 °F (at 5:56 AM)
Average temperature yesterday: 75 °F

Past Weeks' High & Low Weather Summary

 TemperatureHumidityPressure
High92 °F (Apr 9, 2:56 PM)40% (Apr 19, 5:56 AM)30.18 "Hg (Apr 19, 5:56 AM)
Low56 °F (Apr 15, 3:56 AM)1% (Apr 9, 2:56 PM)29.50 "Hg (Apr 12, 5:56 PM)
Average74 °F14%29.84 "Hg
* Reported Apr 5 12:56 PM — Apr 20 12:56 PM, Paradise, Weather by CustomWeather, © 2014

Note: Actual official high and low records may vary slightly from our data, if they occured in-between our weather recording intervals... More about our weather records

Advertising

Historic Weather Conditions — Data for Previous 24 hours

 ConditionsComfort  
Time TempWeatherWind HumidityBarometerVisibility
12:56 PM
Apr 20
87 °FPassing clouds.No wind15%29.90 "Hg10 mi
11:56 AM84 °FPassing clouds.No wind17%29.93 "Hg10 mi
10:56 AM81 °FPassing clouds.3 mph19%29.94 "Hg10 mi
9:56 AM78 °FScattered clouds.3 mph22%29.95 "Hg10 mi
8:56 AM73 °FPassing clouds.7 mph26%29.94 "Hg10 mi
7:56 AM71 °FPassing clouds.5 mph27%29.94 "Hg10 mi
6:56 AM67 °FPassing clouds.6 mph33%29.92 "Hg10 mi
5:56 AM66 °FPassing clouds.9 mph33%29.90 "Hg10 mi
4:56 AM67 °FPassing clouds.10 mph30%29.88 "Hg10 mi
3:56 AM68 °FPassing clouds.7 mph27%29.87 "Hg10 mi
2:56 AM69 °FClear.10 mph26%29.87 "Hg10 mi
1:56 AM70 °FClear.8 mph25%29.86 "Hg10 mi
12:56 AM72 °FClear.6 mph24%29.86 "Hg10 mi
11:56 PM
Apr 19
75 °FClear.10 mph22%29.85 "Hg10 mi
10:56 PM77 °FClear.12 mph22%29.84 "Hg10 mi
9:56 PM78 °FClear.12 mph20%29.83 "Hg10 mi
8:56 PM80 °FClear.7 mph19%29.82 "Hg10 mi
7:56 PM81 °FPassing clouds.6 mph16%29.80 "Hg10 mi
6:56 PM83 °FScattered clouds.7 mph15%29.79 "Hg10 mi
5:56 PM83 °FPartly sunny.8 mph14%29.79 "Hg10 mi
4:56 PM83 °FPartly sunny.5 mph14%29.79 "Hg10 mi
3:56 PM83 °FScattered clouds.5 mph15%29.80 "Hg10 mi
2:56 PM82 °FScattered clouds.10 mph16%29.81 "Hg10 mi
Weather by CustomWeather, © 2014

See weather overview